Starlink 11712

operational
NORAD ID: 64135 Int'l Des: 2025-111 Owner: SPXS Country: US Constellation: starlink
LEOCIRCULAR

About Starlink 11712

Description loading...

Live Position

Loading 3D Globe...

Upcoming Passes

Altitude History

Altitude vs Time

uPlot chart will show altitude changes over time

Two-Line Element Set

1 64135U 25111N 25307.59764576 .00238539 00000-0 18033-2 0 9992
2 64135 43.0023 14.2891 0003040 277.1919 82.8603 15.70921326 26800
Epoch: Nov 3, 2025 • Age: 16 hours

Current Status

Altitude 357.0 km
Velocity 7.70 km/s
Sub-Earth Point -10.50°S, 61.45°E
Launch Date May 24, 2025
Age 0.4 years
Type internet

Technical Details

Classification Payload
Mass 960.00 kg
Dry Mass 910.00 kg
Total Mass 960.00 kg
Length 0.30 m
Diameter 4.10 m
Span 29.00 m
Shape Box + pan
Manufacturer SPXS
Bus Type Starlink V2MD
Phase Status In Orbit
Owner/State SPXS/US

Large Constellations

Loading constellations...